Location: Earls Croome
(52.0667°N, 2.2000°W)
Time: 15:51:50
(UTC+00:00)

SJ 16-02 - Pass Details

Date: 17 November 2019
Orbit: 607 x 616 km, 75.0° (Epoch: 06 December)

Event Time Altitude Azimuth Distance (km) Brightness Sun altitude
Exits shadow 05:14:56 29° 211° (SSW) 1,113 2.4 -20.7°
Maximum altitude 05:17:06 79° 294° (WNW) 626 1.2 -20.4°
Drops below altitude 10° 05:21:30 10° 22° (NNE) 1,970 4.1 -19.7°
Sets 05:23:45 0° 23° (NNE) 2,879 5.0 -19.4°
